TimeCST,TemperatureF,Dew PointF,Humidity,Sea Level PressureIn,VisibilityMPH,Wind Direction,Wind SpeedMPH,Gust SpeedMPH,PrecipitationIn,Events,Conditions,WindDirDegrees,DateUTC
12:53 AM,12.0,10.0,92,30.02,10.0,North,16.1,-,N/A,,Overcast,360,2013-12-22 06:53:00
1:53 AM,12.9,10.0,88,30.04,10.0,NNW,12.7,-,N/A,,Overcast,340,2013-12-22 07:53:00
2:53 AM,12.0,10.0,92,30.06,10.0,North,9.2,-,N/A,,Overcast,350,2013-12-22 08:53:00
3:53 AM,12.0,9.0,88,30.10,10.0,North,5.8,-,N/A,,Overcast,350,2013-12-22 09:53:00
4:45 AM,10.4,6.8,85,29.99,10.0,NNW,5.8,-,N/A,,Scattered Clouds,340,2013-12-22 10:45:00
4:53 AM,9.0,7.0,92,30.11,10.0,NNW,6.9,-,N/A,,Partly Cloudy,340,2013-12-22 10:53:00
5:53 AM,6.1,3.9,91,30.15,10.0,NNW,9.2,-,N/A,,Clear,330,2013-12-22 11:53:00
6:53 AM,7.0,3.9,87,30.14,10.0,NNW,10.4,-,N/A,,Clear,340,2013-12-22 12:53:00
7:53 AM,8.1,3.9,83,30.17,10.0,NNW,8.1,-,N/A,,Partly Cloudy,340,2013-12-22 13:53:00
8:07 AM,8.6,5.0,85,30.04,10.0,NW,5.8,-,N/A,,Mostly Cloudy,320,2013-12-22 14:07:00
8:53 AM,10.9,7.0,84,30.19,10.0,NNW,8.1,-,N/A,,Overcast,340,2013-12-22 14:53:00
9:53 AM,14.0,10.0,84,30.21,6.0,NW,9.2,-,N/A,,Overcast,320,2013-12-22 15:53:00
10:53 AM,19.0,12.9,77,30.22,9.0,NW,11.5,-,0.00,,Overcast,320,2013-12-22 16:53:00
11:43 AM,21.2,12.2,68,30.09,10.0,NNW,18.4,25.3,N/A,,Scattered Clouds,340,2013-12-22 17:43:00
11:53 AM,23.0,12.0,63,30.20,10.0,NNW,18.4,25.3,N/A,,Scattered Clouds,340,2013-12-22 17:53:00
12:53 PM,24.1,12.0,60,30.19,10.0,NNW,13.8,26.5,N/A,,Partly Cloudy,340,2013-12-22 18:53:00
1:53 PM,26.1,12.0,55,30.19,10.0,NNW,11.5,24.2,N/A,,Partly Cloudy,330,2013-12-22 19:53:00
2:53 PM,26.1,12.0,55,30.20,10.0,North,11.5,-,N/A,,Clear,350,2013-12-22 20:53:00
3:53 PM,24.1,10.9,57,30.21,10.0,North,10.4,-,N/A,,Clear,360,2013-12-22 21:53:00
4:53 PM,21.0,10.0,63,30.26,10.0,North,6.9,-,N/A,,Mostly Cloudy,10,2013-12-22 22:53:00
5:53 PM,14.0,7.0,74,30.32,10.0,North,4.6,-,N/A,,Mostly Cloudy,360,2013-12-22 23:53:00
6:53 PM,17.1,9.0,71,30.34,10.0,NNE,8.1,-,N/A,,Overcast,20,2013-12-23 00:53:00
7:53 PM,15.1,8.1,74,30.38,10.0,North,9.2,-,N/A,,Overcast,10,2013-12-23 01:53:00
8:53 PM,12.9,7.0,77,30.40,4.0,North,12.7,-,0.00,Snow,Light Snow,10,2013-12-23 02:53:00
9:29 PM,12.2,8.6,85,30.27,2.5,North,10.4,-,0.00,Snow,Light Snow,10,2013-12-23 03:29:00
9:43 PM,12.2,6.8,79,30.27,3.0,North,15.0,-,0.00,Snow,Light Snow,10,2013-12-23 03:43:00
9:53 PM,12.0,7.0,80,30.42,4.0,North,11.5,-,0.00,Snow,Light Snow,360,2013-12-23 03:53:00
10:34 PM,10.4,6.8,85,30.30,2.0,North,12.7,-,0.00,Snow,Light Snow,350,2013-12-23 04:34:00
10:42 PM,10.4,6.8,85,30.30,1.5,North,10.4,-,0.00,Snow,Light Snow,350,2013-12-23 04:42:00
10:53 PM,10.9,7.0,84,30.44,1.2,North,10.4,-,0.00,Snow,Light Snow,350,2013-12-23 04:53:00
11:24 PM,8.6,5.0,85,30.32,2.0,North,12.7,-,0.00,Snow,Light Snow,360,2013-12-23 05:24:00
11:34 PM,8.6,3.2,79,30.32,4.0,North,13.8,-,0.00,Snow,Light Snow,360,2013-12-23 05:34:00
11:53 PM,8.1,3.9,83,30.47,5.0,North,9.2,-,0.00,Snow,Light Snow,360,2013-12-23 05:53:00